Regional Weather Roundup
Issued by NWS

Home | Current Version | Previous Version | Graphics & Text | Print | Product List | Glossary Off
Versions: 1 2 3 4 5 6 7 8 9 10 11 12 13 14 15 16 17 18 19 20 21 22 23 24 25 26 27 28 29 30 31 32 33 34 35 36 37 38 39 40 41 42 43 44 45 46 47 48 49 50

000
ASUS43 KMKX 172021
RWRWI

WISCONSIN REGIONAL WEATHER ROUNDUP
NATIONAL WEATHER SERVICE MILWAUKEE/SULLIVAN WI
300 PM CDT THU APR 17 2014

NOTE: "FAIR" INDICATES FEW OR NO CLOUDS BELOW 12,000 FEET WITH NO
SIGNIFICANT WEATHER AND/OR OBSTRUCTIONS TO VISIBILITY.

WIZ001-002-006>008-014>016-023>028-172100-
NORTHWEST WISCONSIN

CITY           SKY/WX    TMP DP  RH WIND       PRES   REMARKS
SUPERIOR ARPT  CLOUDY    37  26  62 NW7       30.25S WCI  32
ASHLAND        CLOUDY    35  28  75 NW9       30.23R WCI  28
HAYWARD        CLOUDY    34  27  75 NW7       30.22R WCI  28
SIREN          CLOUDY    36  25  64 N10       30.25R WCI  29
RICE LAKE      CLOUDY    35  28  74 NW7       30.25R WCI  29
LADYSMITH      CLOUDY    35  31  83 NW12      30.22R WCI  27
EAU CLAIRE     CLOUDY    39  30  70 NW6       30.24R WCI  35
MENOMONIE      CLOUDY    40  31  70 W10       30.25R WCI  33
NEW RICHMOND   CLOUDY    37  28  71 NW12      30.26R WCI  29
OSCEOLA        CLOUDY    38  26  64 NW8       30.29S WCI  32
$$

WIZ003>005-009-010-017-018-172100-
NORTH CENTRAL WISCONSIN

CITY           SKY/WX    TMP DP  RH WIND       PRES   REMARKS
WOODRUFF       CLOUDY    39  34  83 NW7       30.15R WCI  34
RHINELANDER    CLOUDY    35  31  85 W8        30.16R WCI  29
EAGLE RIVER    CLOUDY    35  33  92 W6        30.15R WCI  30
LAND O LAKES   CLOUDY    36  33  88 W3        30.15R
PHILLIPS       CLOUDY    34  31  89 NW6       30.17R WCI  29
TOMAHAWK       CLOUDY    36  32  86 CALM      30.17R
MEDFORD        CLOUDY    34  31  90 W8        30.18R WCI  27
MERRILL        CLOUDY    38  33  84 CALM      30.18R
$$

WIZ029-030-035-036-043>047-172100-
CENTRAL WISCONSIN

CITY           SKY/WX    TMP DP  RH WIND       PRES   REMARKS
WAUSAU         CLOUDY    40  34  79 W13       30.17R WCI  32
MOSINEE        CLOUDY    39  36  87 W10       30.19R WCI  32
MARSHFIELD     CLOUDY    39  33  79 NW12      30.19R WCI  32
STEVENS POINT  CLOUDY    42  33  70 W9G16     30.18R
WAUPACA        CLOUDY    54  36  50 NW13      30.17R
WAUTOMA        PTSUNNY   54  36  50 W17G23    30.18R
WISC RAPIDS    CLOUDY    43  35  73 NW12      30.21R
CAMP DOUGLAS   CLOUDY    43  36  75 W12       30.21R
$$

WIZ011>013-019>022-031-037>040-048>050-172100-
NORTHEAST WISCONSIN

CITY           SKY/WX    TMP DP  RH WIND       PRES   REMARKS
ANTIGO         CLOUDY    37  33  82 W6        30.17R WCI  33
STURGEON BAY   CLOUDY    46  36  66 S3        30.17R
GREEN BAY      CLOUDY    51  38  60 NW10      30.15R
MANITOWOC      CLOUDY    48  38  68 SE7       30.17R
APPLETON       PTSUNNY   52  36  54 W13       30.15R
CLINTONVILLE   CLOUDY    48  34  57 NW8G17    30.16R
OSHKOSH        CLOUDY    54  37  52 W10       30.14R
$$

WIZ032>034-041-042-053>061-172100-
SOUTHWEST WISCONSIN

CITY           SKY/WX    TMP DP  RH WIND       PRES   REMARKS
LA CROSSE      CLOUDY    43  31  62 NW9       30.25R
SPARTA         CLOUDY    43  32  66 W10       30.24R
VIROQUA        CLOUDY    44  34  68 W10       30.21S
BOSCOBEL       PTSUNNY   51  34  52 W6        30.22R
PRAIRIE DU CHI CLOUDY    48  33  56 W10       30.24R
PLATTEVILLE    FAIR      52  36  54 W5        30.22R
$$

WIZ056-057-062-063-064-067-068-172100-
SOUTH CENTRAL WISCONSIN

CITY           SKY/WX    TMP DP  RH WIND       PRES   REMARKS
BARABOO/DELLS  PTSUNNY   49  37  61 W12       30.18R
LONE ROCK      CLOUDY    53  36  52 W12       30.20R
WATERTOWN      CLOUDY    52  38  59 W8        30.18S
MADISON        PTSUNNY   53  36  52 W8        30.19R
MIDDLETON      MOCLDY    53  36  52 W9        30.20R
MONROE         MOSUNNY   53  36  53 W14       30.19S
JANESVILLE     MOSUNNY   55  36  47 W12       30.19S
$$

WIZ051-052-058>065-066-070>072-172100-
SOUTHEAST WISCONSIN

CITY           SKY/WX    TMP DP  RH WIND       PRES   REMARKS
MILWAUKEE      PTSUNNY   53  38  56 W12G17    30.20R
WAUKESHA       CLOUDY    46  37  71 W12       30.20R
MILWAUKEE/TIMM NOT AVBL
RACINE         MOSUNNY   56  39  53 W7G18     30.20R
BURLINGTON     MOSUNNY   53  38  57 W12       30.19S
KENOSHA        MOSUNNY   56  40  55 W14G21    30.19R
FOND DU LAC    CLOUDY    52  39  61 SW15      30.16R
SHEBOYGAN      CLOUDY    50  38  63 W10       30.18R
WEST BEND      CLOUDY    46  34  61 W10G16    30.19R
JUNEAU         CLOUDY    50  35  57 SW7       30.19S
$$

LSZ147-162-172100-
LAKE SUPERIOR

STATION/POSITION TIME  TEMP    WIND        PRES    WAVE
                       AIR SEA DIR/SP/G            HT/PER
                 (UTC) (F)     (DEG/KT/KT) (MB)    (FT/S)
DEVILS ISLAND    2000   32     310/ 12/ 14 1024.3R
PORT WING        1900   35     270/  4/  7 1024.0
SAXON HARBOR     1900          290/  3/  8 1022.7R
$$

LMZ867-665-643>646-172100-
LAKE MICHIGAN

STATION/POSITION TIME  TEMP    WIND        PRES    WAVE
                       AIR SEA DIR/SP/G            HT/PER
                 (UTC) (F)     (DEG/KT/KT) (MB)    (FT/S)
NORTHPORT PIER   1900   38     150/  8/ 13 1021.3S
SISTER BAY       1909   46     200/ 13/ 15   N/A
KEWAUNEE LAKESHO 2000   37     170/ 10/ 12 1022.0R
SHEBOYGAN LAKESH 2000   50     260/ 13/ 15 1022.4R
PORT WASHINGTON  1900   53     250/ 10/ 14 1022.0R
MILWAUKEE LAKESH 2000   51     260/ 10/ 16   N/A
KENOSHA   LAKESH 2000   55     250/ 10/ 17   N/A
$$

TC  - TEMPERATURE IN CELSIUS
VSB - VISIBILITY IN STATUTE MILES
WCI - WIND CHILL INDEX
HX  - HEAT INDEX




USA.gov is the U.S. government's official web portal to all federal, state and local government web resources and services.